Caldwell, NJ

3:11 PM EST on February 21, 2018 (GMT -0500)
Essex County

Weather History for KCDW - September, 2014

Change the Weather History Date:

Tuesday, September 2, 2014

  Actual Average Record
Temperature  
Mean Temperature 82 °F -  
Max Temperature 91 °F 80 °F 100 °F (1953)
Min Temperature 73 °F 57 °F 41 °F (1976)
Cooling Degree Days 17    
Growing Degree Days 32 (Base 50)    
Moisture  
Dew Point 68 °F    
Average Humidity 66    
Maximum Humidity 90    
Minimum Humidity 45    
Precipitation  
Precipitation 0.00 in - - ()
Sea Level Pressure  
Sea Level Pressure 29.89 in    
Wind  
Wind Speed 2 mph (WSW)    
Max Wind Speed 10 mph    
Max Gust Speed 18 mph    
Visibility 10 miles    
Events      
Averages and records for this station are not official NWS values.
T = Trace of Precipitation, MM = Missing Value Source: NWS Daily Summary

Daily Weather History Graph

Daily Weather History Graph

Search for Another Location

Airport or City:

Trip Planner

Search our weather history database for the weather conditions in past years. The results will help you decide how hot, cold, wet, or windy it might be!

Date:

Astronomy

Sep. 02, 2014 Rise Set
Actual Time 6:24 AM EDT 7:27 PM EDT
Civil Twilight 5:56 AM EDT 7:55 PM EDT
Nautical Twilight 5:23 AM EDT 8:29 PM EDT
Astronomical Twilight 4:48 AM EDT 9:04 PM EDT
Moon 2:09 PM EDT (9/2) No Moon Set
Length of Visible Light 13h 59m
Length of Day
13h 03m
First Quarter, 52% of the Moon is Illuminated
Sep 2
First Quarter
Sep 8
Full
Sep 15
Last Quarter
Sep 24
New
Oct 1
First Quarter

Hourly Weather History & Observations

Time (EDT) Temp. Heat Index Dew Point Humidity Pressure Visibility Wind Dir Wind Speed Gust Speed Precip Events Conditions
12:53 AM 75.9 °F - 70.0 °F 82% 29.95 in 10.0 mi Calm Calm - N/A   Clear
1:53 AM 73.9 °F - 70.0 °F 87% 29.94 in 10.0 mi Calm Calm - N/A   Clear
2:53 AM 75.0 °F - 70.0 °F 84% 29.94 in 10.0 mi Calm Calm - N/A   Clear
3:53 AM 73.9 °F - 70.0 °F 87% 29.94 in 10.0 mi Calm Calm - N/A   Clear
4:53 AM 73.0 °F - 70.0 °F 90% 29.92 in 10.0 mi Calm Calm - N/A   Clear
5:53 AM 73.0 °F - 70.0 °F 90% 29.92 in 9.0 mi Calm Calm - N/A   Clear
6:53 AM 73.0 °F - 70.0 °F 90% 29.93 in 8.0 mi Calm Calm - N/A   Clear
7:53 AM 75.0 °F - 71.1 °F 87% 29.94 in 9.0 mi WSW 3.5 mph - N/A   Clear
8:53 AM 78.1 °F - 71.1 °F 79% 29.95 in 10.0 mi SW 3.5 mph - N/A   Clear
9:53 AM 82.0 °F 86.3 °F 71.1 °F 69% 29.95 in 10.0 mi Variable 5.8 mph - N/A   Clear
10:53 AM 86.0 °F 90.1 °F 69.1 °F 57% 29.94 in 10.0 mi North - - N/A   Partly Cloudy
11:53 AM 87.1 °F 90.6 °F 68.0 °F 53% 29.92 in 10.0 mi West 6.9 mph - N/A   Clear
12:53 PM 88.0 °F 91.4 °F 68.0 °F 51% 29.90 in 10.0 mi SW 3.5 mph - N/A   Clear
1:53 PM 90.0 °F 93.6 °F 68.0 °F 48% 29.89 in 10.0 mi Variable 6.9 mph - N/A   Scattered Clouds
2:53 PM 90.0 °F 92.8 °F 66.9 °F 46% 29.86 in 10.0 mi SW 10.4 mph - N/A   Partly Cloudy
3:53 PM 91.0 °F 94.3 °F 66.9 °F 45% 29.85 in 10.0 mi Variable 6.9 mph - N/A   Scattered Clouds
4:53 PM 90.0 °F 92.4 °F 66.0 °F 45% 29.83 in 10.0 mi Variable 6.9 mph - N/A   Clear
5:53 PM 89.1 °F 91.0 °F 64.9 °F 45% 29.82 in 10.0 mi West 8.1 mph - N/A   Clear
6:53 PM 87.1 °F 88.9 °F 64.9 °F 48% 29.81 in 10.0 mi WSW 4.6 mph - N/A   Clear
7:53 PM 84.0 °F 86.3 °F 66.0 °F 55% 29.82 in 10.0 mi Calm Calm - N/A   Clear
9:53 PM 84.0 °F 86.5 °F 66.9 °F 56% 29.81 in 10.0 mi WSW 8.1 mph - N/A   Clear
11:53 PM 78.1 °F - 64.9 °F 64% 29.84 in 10.0 mi WSW 6.9 mph 18.4 mph N/A   Clear